Home   Weather   Hong Kong   Past weeks

Flag for Hong Kong Past Weather in Hong Kong, Hong Kong — Yesterday and Last 2 Weeks

Now
75 °F

Passing clouds.


Feels Like: 77 °F
Forecast: 71 / 80 °F
Wind: 6 mph from Southeast

Location: National Airport

Current Time: Apr 30, 2017 at 11:23:01 pm

Latest Report: Apr 30, 2017 at 11:00 pm


Visibility: N/A

Pressure: 29.92 "Hg

Humidity: 74%

Dew Point: 66 °F

Location of Hong KongLocation

Past Weather in Hong Kong — Graph

°F

Hong Kong Temperature Yesterday

Maximum temperature yesterday: 81 °F (at 3:00 pm)
Minimum temperature yesterday: 68 °F (at 1:00 am)
Average temperature yesterday: 74 °F

High & Low Weather Summary for the Past Weeks

 TemperatureHumidityPressure
High88 °F (Apr 18, 2:30 pm)100% (Apr 27, 7:00 am)30.04 "Hg (Apr 27, 7:00 am)
Low64 °F (Apr 22, 11:30 am)48% (Apr 30, 2:00 pm)29.68 "Hg (Apr 21, 2:00 pm)
Average76 °F76%29.88 "Hg
* Reported Apr 15 10:00 pm — Apr 30 10:00 pm, Hong Kong, Weather by CustomWeather, © 2017

Note: Actual official high and low records may vary slightly from our data, if they occured in-between our weather recording intervals... More about our weather records

Advertising

Hong Kong Weather History for the Previous 24 Hours

Scroll right to see more
 ConditionsComfort  
Time TempWeatherWind HumidityBarometerVisibility
10:00 pm
Sun, Apr 30
75 °FPassing clouds.8 mph74%29.92 "HgN/A
9:30 pm75 °FPassing clouds.13 mph69%29.92 "HgN/A
9:00 pm75 °FPassing clouds.14 mph74%29.92 "HgN/A
8:30 pm75 °FPassing clouds.15 mph69%29.89 "HgN/A
8:00 pm75 °FPassing clouds.13 mph74%29.89 "HgN/A
7:30 pm75 °FPassing clouds.15 mph69%29.89 "HgN/A
7:00 pm75 °FPassing clouds.14 mph69%29.89 "HgN/A
6:30 pm77 °FPassing clouds.14 mph65%29.89 "HgN/A
6:00 pm77 °FPassing clouds.14 mph65%29.86 "HgN/A
5:30 pm77 °FPassing clouds.12 mph65%29.86 "HgN/A
5:00 pm79 °FPassing clouds.9 mph58%29.86 "HgN/A
4:30 pm81 °FPassing clouds.3 mph48%29.86 "HgN/A
4:00 pm81 °FPassing clouds.8 mph48%29.86 "HgN/A
3:30 pm81 °FPassing clouds.13 mph51%29.86 "HgN/A
3:00 pm81 °FPassing clouds.3 mph51%29.89 "HgN/A
2:30 pm81 °FPassing clouds.3 mph48%29.89 "HgN/A
2:00 pm82 °FPassing clouds.7 mph48%29.89 "HgN/A
1:30 pm81 °FPassing clouds.7 mph51%29.89 "HgN/A
1:00 pm81 °FPassing clouds.7 mph51%29.92 "HgN/A
12:30 pm81 °FPassing clouds.10 mph54%29.92 "HgN/A
12:00 pm81 °FPassing clouds.12 mph54%29.92 "HgN/A
11:30 am81 °FPassing clouds.9 mph54%29.92 "HgN/A
11:00 am81 °FPassing clouds.10 mph54%29.92 "HgN/A
10:30 am79 °FPassing clouds.10 mph58%29.95 "HgN/A
10:00 am79 °FPassing clouds.10 mph61%29.95 "HgN/A
9:30 am79 °FPassing clouds.10 mph61%29.95 "HgN/A
9:00 am77 °FPassing clouds.10 mph65%29.95 "HgN/A
8:30 am75 °FPassing clouds.8 mph69%29.95 "HgN/A
8:00 am75 °FPassing clouds.8 mph69%29.95 "HgN/A
7:30 am73 °FPassing clouds.6 mph74%29.95 "HgN/A
7:00 am72 °FPassing clouds.3 mph69%29.92 "HgN/A
6:30 am70 °FSunny.5 mph64%29.92 "Hg10 mi
6:00 am70 °FSunny.5 mph64%29.92 "Hg10 mi
5:30 am72 °FClear.3 mph73%29.92 "Hg10 mi
5:00 am72 °FClear.5 mph78%29.92 "Hg10 mi
4:30 am70 °FClear.6 mph69%29.89 "Hg10 mi
3:30 am70 °FClear.3 mph64%29.92 "Hg10 mi
3:00 am72 °FPassing clouds.3 mph65%29.89 "HgN/A
2:30 am72 °FPassing clouds.5 mph73%29.92 "HgN/A
2:00 am73 °FPassing clouds.6 mph69%29.92 "HgN/A
1:30 am72 °FPassing clouds.3 mph69%29.92 "HgN/A
1:00 am73 °FClear.2 mph57%29.92 "Hg10 mi
12:30 am73 °FPassing clouds.5 mph53%29.95 "HgN/A
12:00 am73 °FPassing clouds.5 mph61%29.95 "HgN/A
11:30 pm
Sat, Apr 29
73 °FPassing clouds.6 mph65%29.95 "HgN/A
11:00 pm73 °FPassing clouds.7 mph61%29.95 "HgN/A
Weather by CustomWeather, © 2017

See weather overviewHow to use our weather pages